Location: ČR
(50.0000°N, 15.0000°E)
Time: 14:07:11
(UTC+00:00)

Transit 2A Rocket - All Passes

Search period start: 25 October 2021 00:00
Search period end: 04 November 2021 00:00
Orbit: 584 x 918 km, 66.7° (Epoch: 24 October)

Date Brightness Start Highest point End Pass type
(mag) Time Alt. Az. Time Alt. Az. Time Alt. Az.
25 Oct - 01:24:56 10° NW 01:30:52 54° WSW 01:36:44 10° SSE night (unlit)
25 Oct - 03:11:36 10° W 03:12:14 10° W 03:12:52 10° WSW night (unlit)
25 Oct - 16:03:18 10° S 16:08:23 49° ESE 16:13:57 10° NE daylight
25 Oct - 17:46:01 10° WSW 17:51:11 41° NW 17:56:46 10° NNE visible
25 Oct - 19:31:32 10° WNW 19:35:28 18° NNW 19:39:32 10° NNE visible
25 Oct - 21:16:41 10° NNW 21:20:28 17° N 21:24:19 10° NE visible
25 Oct - 22:59:35 10° NNW 23:05:01 32° NE 23:10:27 10° E night (unlit)
26 Oct - 00:42:08 10° NW 00:48:17 79° WSW 00:54:21 10° SSE night (unlit)
26 Oct - 02:26:15 10° WNW 02:30:03 17° WSW 02:33:50 10° SW night (unlit)
26 Oct - 15:21:20 10° S 15:25:58 31° ESE 15:30:58 10° NE daylight
26 Oct - 17:02:56 10° SW 17:08:17 57° NW 17:14:07 10° NNE visible
26 Oct - 18:47:54 10° WNW 18:52:13 21° NNW 18:56:44 10° NNE visible
26 Oct - 20:33:34 10° NNW 20:37:08 16° N 20:40:46 10° NE visible
26 Oct - 22:16:57 10° NNW 22:21:54 25° NNE 22:26:55 10° E visible
26 Oct - 23:59:26 10° NW 00:05:35 73° NE 00:11:40 10° SE night (unlit)
27 Oct - 01:42:45 10° NW 01:47:46 27° WSW 01:52:43 10° SSW night (unlit)
27 Oct - 14:39:53 10° SSE 14:43:40 20° ESE 14:47:39 10° ENE daylight
27 Oct - 16:20:07 10° SW 16:25:31 84° NW 16:31:26 10° NE visible
27 Oct - 18:04:21 10° W 18:09:03 26° NNW 18:14:01 10° NNE visible
27 Oct - 19:50:14 10° NW 19:53:47 16° N 19:57:25 10° NNE visible
27 Oct - 21:34:14 10° NNW 21:38:43 21° NNE 21:43:16 10° ENE visible
27 Oct - 23:16:47 10° NNW 23:22:46 52° NE 23:28:41 10° ESE night (unlit)
28 Oct - 00:59:40 10° NW 01:05:22 41° WSW 01:10:57 10° S night (unlit)
28 Oct - 13:59:36 10° ESE 14:01:29 12° E 14:03:25 10° E daylight
28 Oct - 15:37:35 10° SSW 15:42:52 66° ESE 15:48:41 10° NE daylight
28 Oct - 17:20:56 10° W 17:25:59 34° NW 17:31:23 10° NNE visible
28 Oct - 19:06:42 10° NW 19:10:27 17° N 19:14:19 10° NNE visible
28 Oct - 20:51:25 10° NNW 20:55:28 18° NNE 20:59:34 10° ENE visible
28 Oct - 22:34:09 10° NNW 22:39:50 38° NE 22:45:30 10° ESE visible
29 Oct - 00:16:48 10° NW 00:22:52 62° WSW 00:28:48 10° SSE night (unlit)
29 Oct - 02:01:56 10° WNW 02:04:21 12° W 02:06:44 10° SW night (unlit)
29 Oct - 14:55:22 10° S 15:00:22 42° ESE 15:05:48 10° NE daylight
29 Oct - 16:37:43 10° WSW 16:43:00 46° NW 16:48:43 10° NNE visible
29 Oct - 18:23:04 10° WNW 18:27:10 19° NNW 18:31:25 10° NNE visible
29 Oct - 20:08:27 10° NNW 20:12:09 16° N 20:15:55 10° NE visible
29 Oct - 21:51:31 10° NNW 21:56:48 29° NNE 22:02:05 10° E visible
29 Oct - 23:34:03 10° NW 23:40:13 90° WSW 23:46:18 10° SE night (unlit)
30 Oct - 01:17:48 10° WNW 01:22:08 20° WSW 01:26:24 10° SSW night (unlit)
30 Oct - 14:13:34 10° SSE 14:17:59 27° ESE 14:22:44 10° NE daylight
30 Oct - 15:54:44 10° SW 16:00:09 66° NW 16:06:04 10° NE daylight
30 Oct - 17:39:27 10° WNW 17:43:57 23° NNW 17:48:40 10° NNE visible
30 Oct - 19:25:15 10° NW 19:28:48 16° N 19:32:26 10° NE visible
30 Oct - 21:08:51 10° NNW 21:13:40 24° NNE 21:18:30 10° ENE visible
30 Oct - 22:51:22 10° NNW 22:57:28 64° NE 23:03:30 10° SE night (unlit)
31 Oct - 00:34:30 10° NW 00:39:49 31° WSW 00:45:00 10° S night (unlit)
31 Oct - 13:32:23 10° SE 13:35:44 17° ESE 13:39:14 10° ENE daylight
31 Oct - 15:12:00 10° SSW 15:17:25 85° SE 15:23:22 10° NE daylight
31 Oct - 16:55:57 10° W 17:00:49 29° NNW 17:05:58 10° NNE visible
31 Oct - 18:41:49 10° NW 18:45:28 16° N 18:49:11 10° NNE visible
31 Oct - 20:26:06 10° NNW 20:30:27 20° NNE 20:34:50 10° ENE visible
31 Oct - 22:08:43 10° NNW 22:14:37 46° NE 22:20:27 10° ESE visible
31 Oct - 23:51:31 10° NW 23:57:22 48° WSW 00:03:05 10° S night (unlit)
01 Nov - 14:29:34 10° SSW 14:34:49 56° ESE 14:40:34 10° NE daylight
01 Nov - 16:12:35 10° WSW 16:17:46 38° NW 16:23:20 10° NNE visible
01 Nov - 17:58:14 10° NW 18:02:08 18° NNW 18:06:10 10° NNE visible
01 Nov - 19:43:14 10° NNW 19:47:10 17° NNE 19:51:08 10° NE visible
01 Nov - 21:26:05 10° NNW 21:31:38 35° NE 21:37:10 10° E visible
01 Nov - 23:08:41 10° NW 23:14:49 71° WSW 23:20:48 10° SSE night (unlit)
02 Nov - 00:53:10 10° WNW 00:56:26 15° WSW 00:59:41 10° SW night (unlit)
02 Nov - 13:47:29 10° S 13:52:22 36° ESE 13:57:38 10° NE daylight
02 Nov - 15:29:27 10° WSW 15:34:50 52° NW 15:40:41 10° NNE daylight
02 Nov - 17:14:36 10° WNW 17:18:52 21° NNW 17:23:19 10° NNE visible
02 Nov - 19:00:10 10° NNW 19:03:50 16° N 19:07:33 10° NE visible
02 Nov - 20:43:26 10° NNW 20:48:34 27° NNE 20:53:42 10° E visible
02 Nov - 22:25:58 10° NW 22:32:08 80° NE 22:38:11 10° SE visible
03 Nov - 00:09:27 10° WNW 00:14:12 24° WSW 00:18:50 10° SSW night (unlit)
03 Nov - 13:05:52 10° SSE 13:10:02 23° ESE 13:14:27 10° ENE daylight
03 Nov - 14:46:33 10° SW 14:52:01 75° NW 14:58:00 10° NE daylight
03 Nov - 16:31:01 10° W 16:35:41 25° NNW 16:40:36 10° NNE visible
03 Nov - 18:16:53 10° NW 18:20:29 16° N 18:24:08 10° NE visible
03 Nov - 20:00:44 10° NNW 20:05:24 22° NNE 20:10:04 10° ENE visible
03 Nov - 21:43:17 10° NNW 21:49:21 57° NE 21:55:18 10° SE visible
03 Nov - 23:26:18 10° NW 23:31:50 36° WSW 23:37:13 10° S night (unlit)
